Lid_Strength_Index
5 8 9 10 13 15 16 13 12 11 12 11 12 10 9 8 10 13 5 2 1 1 -0 -0 -1 -1 -1 -1 -1 -1 -1 -1 -1 -1 -1 -1 -1 -1 -1 -1 -1 -1 -1 -2 -1 -1 -1 -1 -1
8 8 10 13 16 18 17 14 12 10 10 11 9 9 10 9 7 6 4 1 0 0 -0 -0 -0 -1 -1 -1 -1 -1 -1 -1 -1 -1 -1 -1 -1 -1 -1 -1 -1 -1 -2 -1 -1 -1 0 1 1
9 9 11 14 17 18 17 15 12 12 11 11 12 11 10 10 8 5 3 1 0 0 0 0 -0 -1 -1 -1 -1 -1 -1 -1 -1 -1 -1 -1 -1 -1 -1 -1 -1 -1 -1 -1 -0 0 1 1 1
10 10 13 17 17 16 15 15 13 13 12 11 12 11 9 7 5 4 1 1 1 1 0 0 -1 -1 -1 -1 -1 -1 -1 -1 -1 -1 -1 -1 -1 -1 -1 -1 -1 -1 -0 0 1 1 1 1 1
11 13 17 18 17 15 15 13 14 13 12 11 11 12 11 6 4 3 1 1 1 1 1 0 -1 -1 -1 -1 -1 -1 -1 -1 -1 -1 -2 -1 -1 -1 -2 -2 -2 -1 -0 0 0 1 1 1 1
13 14 19 19 17 16 13 12 13 12 13 12 12 12 10 5 3 2 2 2 1 1 1 -0 1 -0 -1 -1 -1 -1 -2 -2 -1 -2 -2 -2 -2 -2 -2 -1 -0 0 1 1 1 1 1 1 2
14 16 18 20 17 17 14 12 13 11 13 12 10 11 10 7 3 2 3 3 2 1 1 0 0 0 0 -0 -0 -1 -1 -1 -1 -1 -2 -2 -1 -1 -0 0 1 1 1 1 2 2 2 2 2
14 15 18 18 16 16 13 13 12 12 12 11 9 11 11 7 3 4 5 4 2 1 1 1 1 1 0 -0 1 0 -0 -1 -1 -1 -0 -1 -0 0 1 1 1 2 2 2 2 3 3 3 3
14 18 19 17 16 14 13 13 13 12 12 12 10 11 9 3 3 4 5 5 4 2 2 2 2 2 1 1 2 2 1 0 0 1 2 4 6 6 7 3 3 3 3 2 3 4 5 6 6
15 18 17 15 13 14 13 13 12 14 13 13 12 9 5 3 3 4 4 4 4 3 3 3 3 3 2 2 3 4 4 5 6 6 8 8 9 8 7 5 3 4 4 4 4 5 7 9 11
14 16 14 14 12 12 13 13 13 14 15 12 12 10 5 4 4 4 4 3 3 3 3 4 3 3 3 4 5 6 8 8 8 9 9 10 10 9 9 10 10 11 9 11 10 11 11 11 12
14 13 12 13 12 12 13 12 14 13 11 12 12 9 5 5 5 4 4 3 3 3 4 5 5 4 4 4 5 7 9 10 10 10 10 11 11 11 11 11 11 11 12 12 12 12 12 12 11
12 12 11 12 11 13 13 13 13 14 12 12 11 8 5 5 5 4 3 3 2 3 5 5 6 4 4 5 7 8 10 10 10 10 10 11 11 11 11 12 12 12 12 12 12 12 12 12 12
11 10 10 10 12 13 14 14 14 14 12 12 11 9 7 5 5 4 4 3 3 3 4 5 6 5 4 4 7 8 10 10 10 11 10 11 11 11 12 12 12 12 13 13 13 13 13 13 13
9 11 10 10 12 12 12 14 15 13 11 12 13 12 8 5 4 4 4 3 3 3 4 5 5 6 5 5 7 9 9 10 11 11 11 10 11 12 12 12 13 13 13 13 13 13 13 13 13
12 13 15 11 10 11 10 17 12 11 12 12 12 12 11 8 5 4 3 3 3 3 4 4 4 5 6 6 7 9 10 10 11 11 11 11 11 11 12 13 13 13 13 13 14 14 14 14 15
11 16 16 14 11 11 11 15 11 10 11 11 10 10 12 11 8 5 4 4 4 3 4 5 5 6 6 7 7 9 10 10 11 11 11 11 11 11 12 13 13 13 13 14 14 14 15 15 15
15 15 15 15 13 11 12 14 10 10 10 11 10 10 11 11 11 7 5 4 3 3 3 4 5 5 6 7 9 10 11 11 11 11 11 11 11 12 13 13 13 13 14 14 14 15 15 15 15
12 13 14 13 11 11 12 12 11 10 10 10 11 12 13 13 10 11 8 6 5 3 3 4 5 6 6 8 9 10 10 11 12 12 11 11 12 12 13 13 13 13 14 14 14 15 15 15 15
12 14 14 12 11 12 12 13 11 10 10 9 9 11 13 14 13 12 12 10 6 5 4 4 4 6 6 6 7 9 10 12 11 11 11 11 12 12 13 13 13 14 14 15 15 15 16 15 15
13 15 14 14 13 11 13 14 13 12 11 10 10 9 10 12 12 12 13 11 8 6 5 4 4 6 6 6 9 12 12 13 13 13 12 12 12 12 12 13 14 14 14 15 15 15 15 16 15
15 11 12 13 14 18 12 19 14 12 11 10 10 9 9 10 12 11 13 13 10 8 6 4 4 6 6 7 9 10 10 12 11 11 12 12 12 13 13 13 14 14 14 15 15 14 15 15 16
15 13 12 13 15 15 15 18 15 12 13 12 10 9 9 9 9 10 11 11 11 9 8 6 5 6 7 8 8 9 9 9 13 12 13 12 13 13 13 14 14 15 15 15 15 15 15 15 16
12 13 12 13 15 20 16 16 17 16 13 12 10 9 8 8 8 7 8 10 11 10 9 7 6 7 7 8 9 9 9 13 13 13 13 13 14 14 14 14 15 15 15 15 15 15 16 16 16
11 14 19 21 21 20 14 16 15 14 11 11 10 10 9 9 8 7 8 9 10 11 10 8 8 8 8 9 9 10 10 12 12 13 13 14 15 16 15 15 16 16 16 16 16 16 16 16 17
16 14 19 23 22 20 15 19 15 11 10 12 11 10 10 10 9 8 8 8 9 10 10 9 9 9 10 10 10 10 12 11 12 12 13 14 14 14 15 15 16 16 16 16 16 16 17 17 17
15 16 15 17 23 20 21 17 13 12 12 10 10 10 10 11 11 9 9 9 9 10 10 9 9 9 11 10 11 11 12 12 13 13 13 14 14 15 15 16 16 17 16 17 17 18 19 18 19
12 12 17 17 23 23 23 21 18 18 14 11 13 13 12 12 12 12 11 11 10 10 11 10 9 10 11 11 11 12 12 13 14 14 15 15 15 15 16 17 17 18 18 18 19 20 21 19 20
14 15 14 15 17 21 22 20 20 18 19 17 16 14 14 14 14 14 13 13 15 14 13 13 13 13 13 12 13 14 14 14 15 15 15 16 17 16 17 17 18 19 20 20 20 20 19 19 18
12 14 14 18 20 20 21 21 20 22 22 19 16 14 14 15 15 15 15 17 17 16 15 15 13 12 13 13 14 14 15 15 15 16 16 16 17 17 18 18 18 19 19 20 19 20 19 20 19